Weather History for Ocala, FL

Change the Weather History Date:

Wednesday, October 31, 2012

  Actual Average Record
Temperature  
Mean Temperature 56 °F -  
Max Temperature 71 °F 77 °F 86 °F (1996)
Min Temperature 41 °F 55 °F 41 °F (2012)
Degree Days  
Heating Degree Days 9    
Growing Degree Days 6 (Base 50)    
Moisture  
Dew Point 38 °F    
Average Humidity 56    
Maximum Humidity 77    
Minimum Humidity 26    
Precipitation  
Precipitation 0.00 in - - ()
Sea Level Pressure  
Sea Level Pressure 30.00 in    
Wind  
Wind Speed 6 mph (West)    
Max Wind Speed 15 mph    
Max Gust Speed 26 mph    
Visibility 10 miles    
Events      
Averages and records for this station are not official NWS values.
T = Trace of Precipitation, MM = Missing Value Source: NWS Daily Summary

Daily Weather History Graph

Daily Weather History Graph

Search for Another Location

Airport:

Trip Planner

Search our weather history database for the weather conditions in past years. The results will help you decide how hot, cold, wet, or windy it might be!

Date:

Astronomy

Oct. 31, 2012 Rise Set
Actual Time 7:41 AM EDT 6:43 PM EDT
Civil Twilight 7:16 AM EDT 7:07 PM EDT
Nautical Twilight 6:48 AM EDT 7:35 PM EDT
Astronomical Twilight 6:20 AM EDT 8:03 PM EDT
Moon 8:02 PM EDT (10/31) 9:13 AM EDT (10/31)
Length of Visible Light 11h 50m
Length of Day
11h 02m
Full, 97% of the Moon is Illuminated
Oct 31
Full
Nov 6
Last Quarter
Nov 13
New
Nov 20
First Quarter
Nov 28
Full

Hourly Weather History & Observations

Time (EDT) Temp. Dew Point Humidity Pressure Visibility Wind Dir Wind Speed Gust Speed Precip Events Conditions
12:15 AM 48.2 °F 37.4 °F 66% 29.98 in 10.0 mi West 3.5 mph - N/A   Clear
12:35 AM 50.0 °F 37.4 °F 62% 29.98 in 10.0 mi WNW 4.6 mph - N/A   Clear
12:55 AM 51.8 °F 37.4 °F 58% 29.98 in 10.0 mi WNW 4.6 mph - N/A   Clear
1:15 AM 51.8 °F 37.4 °F 58% 29.97 in 10.0 mi NW 6.9 mph - N/A   Clear
1:35 AM 51.8 °F 37.4 °F 58% 29.97 in 10.0 mi NW 6.9 mph - N/A   Clear
1:55 AM 51.8 °F 35.6 °F 54% 29.97 in 10.0 mi WNW 5.8 mph - N/A   Clear
2:15 AM 51.8 °F 35.6 °F 54% 29.97 in 10.0 mi WNW 5.8 mph - N/A   Clear
2:35 AM 51.8 °F 35.6 °F 54% 29.97 in 10.0 mi WNW 5.8 mph - N/A   Clear
2:55 AM 50.0 °F 35.6 °F 58% 29.98 in 10.0 mi WNW 4.6 mph - N/A   Clear
3:15 AM 50.0 °F 35.6 °F 58% 29.98 in 10.0 mi West 5.8 mph - N/A   Clear
3:35 AM 50.0 °F 35.6 °F 58% 29.98 in 10.0 mi WNW 4.6 mph - N/A   Clear
3:55 AM 51.8 °F 33.8 °F 50% 29.98 in 10.0 mi WNW 4.6 mph - N/A   Clear
4:15 AM 50.0 °F 33.8 °F 54% 29.99 in 10.0 mi West 3.5 mph - N/A   Clear
4:35 AM 50.0 °F 33.8 °F 54% 29.99 in 10.0 mi West 4.6 mph - N/A   Clear
4:55 AM 50.0 °F 33.8 °F 54% 29.99 in 10.0 mi WNW 5.8 mph - N/A   Clear
5:35 AM 50.0 °F 33.8 °F 54% 30.00 in 10.0 mi WNW 3.5 mph - N/A   Clear
5:55 AM 48.2 °F 33.8 °F 58% 30.00 in 10.0 mi WNW 5.8 mph - N/A   Clear
6:15 AM 48.2 °F 33.8 °F 58% 30.00 in 10.0 mi NW 4.6 mph - N/A   Clear
6:35 AM 48.2 °F 33.8 °F 58% 30.01 in 10.0 mi WNW 3.5 mph - N/A   Clear
6:50 AM 48.2 °F 33.8 °F 58% 30.01 in 10.0 mi WNW 4.6 mph - N/A   Scattered Clouds
7:50 AM 41.0 °F 33.8 °F 76% 30.03 in 10.0 mi Calm Calm - N/A   Clear
8:50 AM 46.4 °F 37.4 °F 71% 30.05 in 10.0 mi Calm Calm - N/A   Clear
9:50 AM 55.4 °F 33.8 °F 44% 30.06 in 10.0 mi NW 10.4 mph - N/A   Clear
11:50 AM 64.4 °F 30.2 °F 28% 30.05 in 10.0 mi WNW 11.5 mph 17.3 mph N/A   Clear
12:50 PM 66.2 °F 30.2 °F 26% 30.04 in 10.0 mi WNW 13.8 mph 23.0 mph N/A   Clear
1:50 PM 69.8 °F 33.8 °F 27% 30.01 in 10.0 mi NW 15.0 mph - N/A   Clear
2:50 PM 69.8 °F 35.6 °F 28% 29.97 in 10.0 mi WNW 11.5 mph - N/A   Clear
3:50 PM 71.6 °F 37.4 °F 29% 29.96 in 10.0 mi West 12.7 mph 26.5 mph N/A   Clear
4:50 PM 69.8 °F 39.2 °F 33% 29.96 in 10.0 mi WSW 15.0 mph 20.7 mph N/A   Clear
5:50 PM 66.2 °F 39.2 °F 37% 29.97 in 10.0 mi WSW 10.4 mph 17.3 mph N/A   Clear
6:50 PM 62.6 °F 39.2 °F 42% 29.98 in 10.0 mi SW 6.9 mph - N/A   Clear
8:15 PM 55.4 °F 41.0 °F 58% 29.99 in 10.0 mi SSW 3.5 mph - N/A   Clear
8:35 PM 57.2 °F 41.0 °F 55% 29.99 in 10.0 mi SSW 3.5 mph - N/A   Clear
8:55 PM 55.4 °F 42.8 °F 63% 30.00 in 10.0 mi SSW 4.6 mph - N/A   Clear
9:15 PM 53.6 °F 42.8 °F 67% 30.01 in 10.0 mi SSW 6.9 mph - N/A   Clear
9:35 PM 53.6 °F 42.8 °F 67% 30.01 in 10.0 mi SSW 5.8 mph - N/A   Clear
9:55 PM 53.6 °F 44.6 °F 72% 30.02 in 10.0 mi SSW 5.8 mph - N/A   Clear
10:15 PM 53.6 °F 42.8 °F 67% 30.01 in 10.0 mi SSW 5.8 mph - N/A   Clear
10:35 PM 53.6 °F 44.6 °F 72% 30.02 in 10.0 mi SW 3.5 mph - N/A   Clear
10:55 PM 55.4 °F 46.4 °F 72% 30.02 in 10.0 mi SW 4.6 mph - N/A   Clear
11:15 PM 55.4 °F 46.4 °F 72% 30.02 in 10.0 mi SW 5.8 mph - N/A   Clear
11:35 PM 53.6 °F 46.4 °F 77% 30.02 in 10.0 mi SW 4.6 mph - N/A   Clear
11:55 PM 53.6 °F 46.4 °F 77% 30.02 in 10.0 mi SW 4.6 mph - N/A   Clear